Time,TemperatureF,DewpointF,PressureIn,WindDirection,WindDirectionDegrees,WindSpeedMPH,WindSpeedGustMPH,Humidity,HourlyPrecipIn,Conditions,Clouds,dailyrainin,SoftwareType,DateUTC
2013-09-19 00:13:00,75.0,57.0,29.53,North,5,5.0,18.0,53,0.00,,,0.00,,2013-09-19 05:13:00,
2013-09-19 00:23:00,71.0,59.0,29.57,WNW,300,10.0,20.0,66,0.10,,,0.10,,2013-09-19 05:23:00,
2013-09-19 01:12:00,68.0,58.0,29.55,NNW,341,8.0,16.0,71,0.21,,,0.21,,2013-09-19 06:12:00,
2013-09-19 01:22:00,67.0,59.0,29.56,North,355,4.0,12.0,75,0.11,,,0.21,,2013-09-19 06:22:00,
2013-09-19 01:43:00,67.0,59.0,29.56,North,355,3.0,9.0,75,0.08,,,0.21,,2013-09-19 06:43:00,
2013-09-19 01:52:00,67.0,59.0,29.56,North,355,3.0,9.0,75,0.08,,,0.21,,2013-09-19 06:52:00,
2013-09-19 02:12:00,66.0,59.0,29.58,WNW,299,11.0,16.0,78,0.00,,,0.21,,2013-09-19 07:12:00,
2013-09-19 02:22:00,66.0,59.0,29.56,North,10,4.0,11.0,79,0.00,,,0.21,,2013-09-19 07:22:00,
2013-09-19 02:42:00,66.0,58.0,29.56,North,5,6.0,13.0,75,0.00,,,0.21,,2013-09-19 07:42:00,
2013-09-19 02:52:00,66.0,58.0,29.56,NNE,18,2.0,8.0,75,0.00,,,0.21,,2013-09-19 07:52:00,
2013-09-19 03:12:00,67.0,58.0,29.54,NW,325,2.0,6.0,73,0.00,,,0.21,,2013-09-19 08:12:00,
2013-09-19 03:22:00,67.0,58.0,29.53,NNE,28,0.0,2.0,74,0.00,,,0.21,,2013-09-19 08:22:00,
2013-09-19 03:42:00,67.0,59.0,29.56,South,179,3.0,6.0,76,0.00,,,0.21,,2013-09-19 08:42:00,
2013-09-19 03:52:00,65.0,59.0,29.58,South,190,1.0,4.0,82,0.09,,,0.30,,2013-09-19 08:52:00,
2013-09-19 04:11:00,64.0,60.0,29.57,NNE,23,0.0,6.0,86,0.09,,,0.30,,2013-09-19 09:11:00,
2013-09-19 04:21:00,64.0,61.0,29.57,NNE,24,0.0,2.0,89,0.09,,,0.30,,2013-09-19 09:21:00,
2013-09-19 04:53:00,63.0,60.0,29.63,South,179,1.0,5.0,89,0.00,,,0.30,,2013-09-19 09:53:00,
2013-09-19 05:12:00,63.0,60.0,29.57,NE,34,4.0,7.0,90,0.02,,,0.32,,2013-09-19 10:12:00,
2013-09-19 05:23:00,63.0,60.0,29.59,South,184,2.0,8.0,89,0.03,,,0.33,,2013-09-19 10:23:00,
2013-09-19 05:43:00,63.0,60.0,29.62,WSW,245,4.0,7.0,91,0.03,,,0.33,,2013-09-19 10:43:00,
2013-09-19 05:52:00,63.0,60.0,29.63,West,273,3.0,7.0,91,0.03,,,0.33,,2013-09-19 10:52:00,
2013-09-19 06:12:00,62.0,59.0,29.62,NW,320,2.0,5.0,91,0.01,,,0.33,,2013-09-19 11:12:00,
2013-09-19 06:22:00,62.0,60.0,29.59,NNW,342,1.0,5.0,92,0.00,,,0.33,,2013-09-19 11:22:00,
2013-09-19 06:42:00,62.0,59.0,29.60,NNW,341,1.0,5.0,91,0.00,,,0.33,,2013-09-19 11:42:00,
2013-09-19 06:53:00,62.0,59.0,29.59,NE,40,0.0,4.0,91,0.00,,,0.33,,2013-09-19 11:53:00,
2013-09-19 07:11:00,62.0,59.0,29.61,North,5,2.0,6.0,91,0.00,,,0.33,,2013-09-19 12:11:00,
2013-09-19 07:21:00,61.0,58.0,29.62,NNW,344,0.0,3.0,91,0.00,,,0.33,,2013-09-19 12:21:00,
2013-09-19 07:43:00,60.0,58.0,29.65,NNW,340,0.0,3.0,92,0.00,,,0.33,,2013-09-19 12:43:00,
2013-09-19 07:52:00,60.0,58.0,29.67,NNW,335,2.0,3.0,92,0.00,,,0.33,,2013-09-19 12:52:00,
2013-09-19 08:11:00,61.0,59.0,29.68,NNW,336,0.0,3.0,92,0.00,,,0.33,,2013-09-19 13:11:00,
2013-09-19 08:21:00,61.0,58.0,29.70,NNW,329,0.0,2.0,91,0.00,,,0.33,,2013-09-19 13:21:00,
2013-09-19 08:42:00,61.0,57.0,29.72,NE,42,2.0,6.0,88,0.00,,,0.33,,2013-09-19 13:42:00,
2013-09-19 08:52:00,62.0,57.0,29.72,NE,51,3.0,6.0,84,0.00,,,0.33,,2013-09-19 13:52:00,
2013-09-19 09:12:00,62.0,57.0,29.74,NNE,24,4.0,8.0,83,0.00,,,0.33,,2013-09-19 14:12:00,
2013-09-19 09:22:00,61.0,55.0,29.75,North,5,3.0,7.0,82,0.00,,,0.33,,2013-09-19 14:22:00,
2013-09-19 09:52:00,61.0,54.0,29.75,North,355,5.0,10.0,79,0.00,,,0.33,,2013-09-19 14:52:00,
2013-09-19 10:11:00,60.0,53.0,29.74,NE,41,5.0,10.0,78,0.00,,,0.33,,2013-09-19 15:11:00,
2013-09-19 10:22:00,60.0,54.0,29.76,NNW,342,3.0,13.0,82,0.00,,,0.33,,2013-09-19 15:22:00,
2013-09-19 10:43:00,60.0,54.0,29.76,North,355,5.0,9.0,82,0.00,,,0.33,,2013-09-19 15:43:00,
2013-09-19 10:54:00,60.0,53.0,29.76,North,5,5.0,9.0,79,0.00,,,0.33,,2013-09-19 15:54:00,
2013-09-19 11:03:00,60.0,53.0,29.76,North,5,5.0,9.0,79,0.00,,,0.33,,2013-09-19 16:03:00,
2013-09-19 11:24:00,62.0,52.0,29.81,NW,323,6.0,20.0,69,0.00,,,0.33,,2013-09-19 16:24:00,
2013-09-19 11:42:00,61.0,51.0,29.83,North,355,6.0,13.0,69,0.00,,,0.33,,2013-09-19 16:42:00,
2013-09-19 11:52:00,61.0,51.0,29.85,North,360,5.0,11.0,70,0.00,,,0.33,,2013-09-19 16:52:00,
2013-09-19 12:12:00,62.0,52.0,29.86,NNW,346,7.0,16.0,69,0.00,,,0.33,,2013-09-19 17:12:00,
2013-09-19 12:23:00,62.0,52.0,29.85,North,355,11.0,16.0,69,0.00,,,0.33,,2013-09-19 17:23:00,
2013-09-19 12:53:00,61.0,52.0,29.85,North,355,11.0,20.0,71,0.00,,,0.33,,2013-09-19 17:53:00,
2013-09-19 13:11:00,60.0,51.0,29.85,North,11,9.0,22.0,72,0.00,,,0.33,,2013-09-19 18:11:00,
2013-09-19 13:22:00,61.0,51.0,29.84,NE,34,8.0,16.0,70,0.00,,,0.33,,2013-09-19 18:22:00,
2013-09-19 13:42:00,61.0,50.0,29.84,North,5,9.0,17.0,66,0.00,,,0.33,,2013-09-19 18:42:00,
2013-09-19 13:52:00,62.0,50.0,29.84,NNE,33,7.0,14.0,65,0.00,,,0.33,,2013-09-19 18:52:00,
2013-09-19 14:12:00,62.0,50.0,29.84,NNE,33,6.0,14.0,65,0.00,,,0.33,,2013-09-19 19:12:00,
2013-09-19 14:22:00,61.0,50.0,29.83,NNE,25,6.0,13.0,68,0.00,,,0.33,,2013-09-19 19:22:00,
2013-09-19 14:42:00,62.0,51.0,29.83,ENE,67,4.0,14.0,67,0.00,,,0.33,,2013-09-19 19:42:00,
2013-09-19 14:52:00,62.0,51.0,29.83,ENE,71,4.0,10.0,66,0.00,,,0.33,,2013-09-19 19:52:00,
2013-09-19 15:12:00,62.0,52.0,29.85,North,5,7.0,11.0,69,0.00,,,0.33,,2013-09-19 20:12:00,
2013-09-19 15:22:00,61.0,51.0,29.85,North,351,7.0,16.0,70,0.00,,,0.33,,2013-09-19 20:22:00,
2013-09-19 15:42:00,62.0,52.0,29.86,North,360,8.0,14.0,70,0.00,,,0.33,,2013-09-19 20:42:00,
2013-09-19 15:52:00,60.0,52.0,29.87,North,360,8.0,13.0,74,0.00,,,0.33,,2013-09-19 20:52:00,
2013-09-19 16:12:00,61.0,53.0,29.86,North,355,7.0,14.0,75,0.00,,,0.33,,2013-09-19 21:12:00,
2013-09-19 16:22:00,62.0,52.0,29.86,North,350,5.0,10.0,71,0.00,,,0.33,,2013-09-19 21:22:00,
2013-09-19 16:44:00,62.0,52.0,29.86,North,355,7.0,12.0,70,0.00,,,0.33,,2013-09-19 21:44:00,
2013-09-19 16:55:00,62.0,52.0,29.86,NE,42,5.0,12.0,70,0.00,,,0.33,,2013-09-19 21:55:00,
2013-09-19 17:14:00,62.0,53.0,29.88,NNW,342,5.0,11.0,73,0.00,,,0.33,,2013-09-19 22:14:00,
2013-09-19 17:24:00,62.0,52.0,29.88,NNE,17,5.0,9.0,71,0.00,,,0.33,,2013-09-19 22:24:00,
2013-09-19 17:53:00,62.0,51.0,29.88,North,5,5.0,10.0,68,0.00,,,0.33,,2013-09-19 22:53:00,
2013-09-19 18:12:00,62.0,51.0,29.88,North,355,5.0,9.0,66,0.00,,,0.33,,2013-09-19 23:12:00,
2013-09-19 18:22:00,62.0,51.0,29.88,NNW,346,6.0,11.0,67,0.00,,,0.33,,2013-09-19 23:22:00,
2013-09-19 18:53:00,63.0,52.0,29.87,North,360,4.0,8.0,67,0.00,,,0.33,,2013-09-19 23:53:00,
2013-09-19 19:12:00,63.0,52.0,29.87,NNW,342,3.0,7.0,67,0.00,,,0.33,,2013-09-20 00:12:00,
2013-09-19 19:22:00,62.0,51.0,29.88,NNW,348,3.0,9.0,67,0.00,,,0.33,,2013-09-20 00:22:00,
2013-09-19 19:42:00,62.0,52.0,29.88,North,355,1.0,4.0,69,0.00,,,0.33,,2013-09-20 00:42:00,
2013-09-19 19:52:00,62.0,52.0,29.88,NNW,348,0.0,2.0,70,0.00,,,0.33,,2013-09-20 00:52:00,
2013-09-19 20:12:00,61.0,52.0,29.88,NNW,348,0.0,0.0,73,0.00,,,0.33,,2013-09-20 01:12:00,
2013-09-19 20:22:00,60.0,52.0,29.89,NNW,348,0.0,0.0,76,0.00,,,0.33,,2013-09-20 01:22:00,
2013-09-19 20:42:00,58.0,52.0,29.90,NNW,348,0.0,0.0,80,0.00,,,0.33,,2013-09-20 01:42:00,
2013-09-19 20:52:00,57.0,52.0,29.91,NNW,348,0.0,0.0,83,0.00,,,0.33,,2013-09-20 01:52:00,
2013-09-19 21:12:00,56.0,52.0,29.92,NNW,348,0.0,0.0,85,0.00,,,0.33,,2013-09-20 02:12:00,
2013-09-19 21:22:00,56.0,52.0,29.93,NNW,348,0.0,0.0,87,0.00,,,0.33,,2013-09-20 02:22:00,
2013-09-19 21:42:00,55.0,51.0,29.94,NNW,348,0.0,0.0,87,0.00,,,0.33,,2013-09-20 02:42:00,
2013-09-19 21:53:00,54.0,51.0,29.95,NNW,348,0.0,1.0,88,0.00,,,0.33,,2013-09-20 02:53:00,
2013-09-19 22:12:00,53.0,50.0,29.97,NNW,348,0.0,0.0,88,0.00,,,0.33,,2013-09-20 03:12:00,
2013-09-19 22:23:00,53.0,50.0,29.97,NNW,348,0.0,0.0,89,0.00,,,0.33,,2013-09-20 03:23:00,
2013-09-19 22:45:00,52.0,49.0,29.98,NNW,348,0.0,0.0,91,0.00,,,0.33,,2013-09-20 03:45:00,
2013-09-19 22:56:00,52.0,49.0,29.99,NNW,348,0.0,1.0,91,0.00,,,0.33,,2013-09-20 03:56:00,
2013-09-19 23:14:00,51.0,48.0,30.00,NNW,348,0.0,1.0,91,0.00,,,0.33,,2013-09-20 04:14:00,
2013-09-19 23:24:00,51.0,49.0,30.01,NNW,348,0.0,0.0,92,0.00,,,0.33,,2013-09-20 04:24:00,
2013-09-19 23:44:00,51.0,49.0,30.01,NNW,348,0.0,1.0,92,0.00,,,0.33,,2013-09-20 04:44:00,
2013-09-19 23:54:00,50.0,48.0,30.01,NNW,348,0.0,1.0,92,0.00,,,0.33,,2013-09-20 04:54:00,